Location: Voyageurs National Park
(48.5020°N, 92.9292°W)
Time: 19:34:21
(UTC-05:00)

PCSat - Visible Passes

Search period start: 24 July 2014 00:00
Search period end: 03 August 2014 00:00
Orbit: 786 x 796 km, 67.1° (Epoch: 23 July)

Date Brightness Start Highest point End Pass type
(mag) Time Alt. Az. Time Alt. Az. Time Alt. Az.
24 Jul 11.7 01:12:48 12° ESE 01:13:29 13° ESE 01:15:42 10° ENE visible
24 Jul 9.6 02:53:32 34° SSW 02:55:58 75° ESE 03:01:24 10° NE visible
24 Jul 11.1 04:35:24 10° W 04:39:57 27° NW 04:44:31 10° NNE visible
25 Jul 9.8 02:23:44 39° S 02:25:27 57° ESE 02:30:47 10° NE visible
25 Jul 10.9 04:04:27 10° WSW 04:09:12 32° NW 04:14:04 10° NNE visible
26 Jul 10.1 01:53:53 38° SE 01:55:00 43° ESE 02:00:07 10° NE visible
26 Jul 10.5 03:34:37 16° WSW 03:38:30 39° NW 03:43:36 10° NNE visible
27 Jul 10.4 01:24:01 32° SE 01:24:34 33° ESE 01:29:22 10° NE visible
27 Jul 10.2 03:04:44 23° WSW 03:07:50 49° NW 03:13:07 10° NNE visible
27 Jul 11.8 04:49:17 10° WNW 04:52:36 16° NNW 04:55:55 10° NNE visible
28 Jul 10.8 00:54:06 25° ESE 00:54:11 25° ESE 00:58:31 10° NE visible
28 Jul 9.9 02:34:49 33° WSW 02:37:12 62° NW 02:42:36 10° NNE visible
28 Jul 11.7 04:18:00 10° WNW 04:21:44 18° NNW 04:25:29 10° NNE visible
29 Jul 11.2 00:24:09 19° ESE 00:24:09 19° ESE 00:27:31 10° ENE visible
29 Jul 9.6 02:04:52 45° SW 02:06:37 79° NW 02:12:05 10° NNE visible
29 Jul 11.5 03:46:47 10° W 03:50:54 21° NNW 03:55:02 10° NNE visible
29 Jul 11.5 23:54:10 14° E 23:54:10 14° E 23:56:10 10° ENE visible
30 Jul 9.5 01:34:53 56° SSW 01:36:03 81° ESE 01:41:31 10° NE visible
30 Jul 11.3 03:15:39 10° W 03:20:07 25° NW 03:24:36 10° NNE visible
30 Jul 12.2 05:03:46 10° NNW 05:05:34 12° N 05:07:21 10° N visible
31 Jul 9.6 01:04:51 57° SSE 01:05:33 62° ESE 01:10:55 10° NE visible
31 Jul 11.1 02:45:33 14° W 02:49:21 30° NW 02:54:09 10° NNE visible
31 Jul 12.1 04:32:22 10° NW 04:34:37 12° NNW 04:36:52 10° N visible
01 Aug 9.8 00:34:46 47° SE 00:35:04 47° ESE 00:40:16 10° NE visible
01 Aug 10.8 02:15:29 20° W 02:18:38 37° NW 02:23:41 10° NNE visible
01 Aug 12.1 04:00:58 10° NW 04:03:42 14° NNW 04:06:25 10° N visible
02 Aug 10.2 00:04:38 36° ESE 00:04:38 36° ESE 00:09:33 10° NE visible
02 Aug 10.4 01:45:20 27° WSW 01:47:58 46° NW 01:53:12 10° NNE visible
02 Aug 12.0 03:29:37 10° WNW 03:32:48 15° NNW 03:35:59 10° NNE visible
02 Aug 10.6 23:34:26 27° ESE 23:34:26 27° ESE 23:38:44 10° NE visible
